Location: Zlin
(49.2330°N, 17.6670°E)
Time: 04:57:59
(UTC+02:00)

ISS - Visible Passes

Search period start: 23 October 2014 00:00
Search period end: 01 November 2014 23:00
Orbit: 413 x 416 km, 51.6° (Epoch: 22 October)

Date Brightness Start Highest point End Pass type
(mag) Time Alt. Az. Time Alt. Az. Time Alt. Az.
23 Oct -3.2 18:40:15 10° WNW 18:43:36 76° SSW 18:46:33 13° ESE visible
23 Oct -0.7 20:17:34 10° W 20:19:26 17° SW 20:19:26 17° SW visible
24 Oct -1.4 19:28:04 10° W 19:30:56 26° SW 19:32:34 18° S visible
25 Oct -2.0 18:38:44 10° WNW 18:41:53 39° SSW 18:45:01 10° SE visible
26 Oct -0.3 18:27:21 10° WSW 18:28:53 13° SW 18:30:24 10° SSW visible
27 Oct -0.6 17:37:22 10° W 17:39:51 19° SW 17:42:19 10° S visible
